Torna al catalogo

STARLINK-2616

AttivoComunicazioniVLEO
NORAD 48695·PAYLOAD·🇺🇸 United States

Lanciato May 26, 2021 da Cape Canaveral Space Force Station

Loading…

Prossimi Passaggi (prossime 24 ore)

TLE

AggiornatoSource: CelesTrak SupGP

Epoca: Sep 15, 2026, 00:33 UTC

1 48695C 21044BK  26258.02340278  .00033037  00000+0  10619-2 0  2584
2 48695  53.1581 276.6703 0001185  89.7185  16.0257 15.31700123    16

Traccia STARLINK-2616 in tempo reale con AllMySat

Download on the App Store